Weather History for Kelsey Dam CS, MB

Change the Weather History Date:

Wednesday, December 4, 2013

  Actual Average Record
Temperature  
Mean Temperature -25 °F -  
Max Temperature -10 °F - - ()
Min Temperature -40 °F - - ()
Degree Days  
Heating Degree Days 90    
Moisture  
Dew Point -27 °F    
Average Humidity 74    
Maximum Humidity 82    
Minimum Humidity 47    
Precipitation  
Precipitation 0.12 in - - ()
Sea Level Pressure  
Sea Level Pressure 30.44 in    
Wind  
Wind Speed 2 mph ()    
Max Wind Speed 6 mph    
Max Gust Speed -    
T = Trace of Precipitation, MM = Missing Value Source: Averaged Metar Reports

Daily Weather History Graph

Daily Weather History Graph

Search for Another Location

Airport:

Trip Planner

Search our weather history database for the weather conditions in past years. The results will help you decide how hot, cold, wet, or windy it might be!

Date:

Astronomy

Dec. 04, 2013 Rise Set
Actual Time 8:38 AM CST 3:54 PM CST
Civil Twilight 7:52 AM CST 4:40 PM CST
Nautical Twilight 7:04 AM CST 5:28 PM CST
Astronomical Twilight 6:18 AM CST 6:13 PM CST
Moon 9:59 AM CST (12/4) 6:15 PM CST (12/4)
Length of Visible Light 8h 47m
Length of Day
7h 15m
Waxing Crescent, 4% of the Moon is Illuminated
Dec 4
Waxing Crescent
Dec 9
First Quarter
Dec 17
Full
Dec 25
Last Quarter
Jan 1
New

Hourly Weather History & Observations

Time (CST) Temp. Windchill Dew Point Humidity Pressure Visibility Wind Dir Wind Speed Gust Speed Precip Events Conditions
12:00 AM -38 °F - -46 °F 47% 30.46 in - SE 1.2 mph - -  
12:00 AM -38.4 °F - -45.6 °F 67% 30.46 in - SE 1.2 mph - N/A   Unknown
1:00 AM -39.1 °F - -46.3 °F 67% 30.46 in - ESE 1.2 mph - N/A   Unknown
2:00 AM -35.9 °F - -42.7 °F 69% 30.47 in - Calm Calm - N/A   Unknown
3:00 AM -30.8 °F - -36.9 °F 72% 30.46 in - SE 1.2 mph - N/A   Unknown
4:00 AM -27.9 °F - -33.9 °F 73% 30.45 in - East 1.2 mph - N/A   Unknown
5:00 AM -27.9 °F - -34.1 °F 73% 30.46 in - East 1.2 mph - N/A   Unknown
6:00 AM -28 °F - -34 °F 57% 30.47 in - Calm Calm - -  
6:00 AM -28.1 °F - -34.2 °F 73% 30.47 in - Calm Calm - N/A   Unknown
7:00 AM -28.3 °F - -34.4 °F 73% 30.48 in - East 2.3 mph - N/A   Unknown
8:00 AM -28.7 °F - -34.8 °F 72% 30.47 in - ENE 1.2 mph - N/A   Unknown
9:00 AM -29.2 °F - -35.3 °F 72% 30.46 in - ENE 2.3 mph - N/A   Unknown
10:00 AM -27.4 °F - -33.5 °F 73% 30.46 in - East 2.3 mph - N/A   Unknown
11:00 AM -23.1 °F - -28.7 °F 75% 30.46 in - Calm Calm - N/A   Unknown
12:00 PM -18 °F - -23 °F 64% 30.46 in - Calm Calm - -  
12:00 PM -18.2 °F - -23.3 °F 78% 30.46 in - Calm Calm - N/A   Unknown
1:00 PM -14.1 °F -23.9 °F -18.8 °F 79% 30.45 in - ENE 3.5 mph - N/A   Unknown
2:00 PM -13.5 °F -25.7 °F -18.0 °F 80% 30.42 in - NE 4.6 mph - N/A   Unknown
3:00 PM -13.5 °F -23.3 °F -18.0 °F 80% 30.42 in - NE 3.5 mph - N/A   Unknown
4:00 PM -13.7 °F - -18.2 °F 80% 30.42 in - ENE 2.3 mph - N/A   Unknown
5:00 PM -13.0 °F - -17.3 °F 81% 30.42 in - NE 2.3 mph - N/A   Unknown
6:00 PM -12 °F - -17 °F 68% 30.41 in - NE 3.5 mph - -  
6:00 PM -12.5 °F -22.1 °F -16.8 °F 81% 30.41 in - NE 3.5 mph - N/A   Unknown
7:00 PM -11.2 °F -24.8 °F -15.3 °F 82% 30.41 in - ENE 5.8 mph - N/A   Unknown
8:00 PM -10.8 °F -24.4 °F -15.0 °F 82% 30.40 in - NE 5.8 mph - N/A   Unknown
9:00 PM -10.5 °F -22.1 °F -14.6 °F 82% 30.40 in - ENE 4.6 mph - N/A   Unknown
10:00 PM -10.3 °F -23.8 °F -14.4 °F 82% 30.38 in - NE 5.8 mph - N/A   Unknown
11:00 PM -10.5 °F -19.8 °F -14.6 °F 82% 30.37 in - NE 3.5 mph - N/A   Unknown